{"data":{"norad_id":51780,"intl_designator":"2022-017N","name":"STARLINK-3617","alt_names":[],"object_type":"PAYLOAD","status":"ACTIVE","operator":null,"country":"US","launch_date":"2022-02-25","launch_site_code":"AFWTR","launch_vehicle":null,"mission":null,"orbit_class":"UNKNOWN","rcs_meters":null,"size_class":null,"mass_kg":null,"dimensions":null,"purposes":["comms"],"wikipedia_slug":null,"has_3d_model":false,"image_url":null,"decayed_at":null,"tle_current":{"epoch":"2026-05-25T00:25:30.815328Z","epoch_age_seconds":80443,"freshness":"FRESH","line1":"1 51780U 22017N   26145.01771777 -.00001338  00000+0 -65974-4 0  9999","line2":"2 51780  53.2150 356.4585 0001248  91.2317 268.8819 15.08849181233941","mean_motion":15.08849181,"eccentricity":0.0001248,"inclination_deg":53.215,"raan_deg":356.4585,"arg_perigee_deg":91.2317,"mean_anomaly_deg":268.8819,"bstar":-6.5974e-5,"rev_number":23394,"period_min":95.436973962211,"perigee_km":538.85197849197,"apogee_km":540.57867443266,"semimajor_km":6917.8523264623,"source":"CELESTRAK","updated_at":"2026-05-25T13:38:16.952288Z"}}}